RH
45 51 49 40 47 48 48 41 36 40 34 28 25 23 20 18 17 17 16 16 27 82 83 71 100 100 90 85 80 84 99 100 100 92 100 100 100 100 100 100 100 100 100 100 100
65 60 54 44 61 64 59 51 62 54 45 40 34 27 23 21 20 19 17 16 16 16 43 87 63 99 100 100 100 88 67 97 100 100 100 100 100 100 100 99 100 100 100 100 100
77 64 62 99 88 81 65 56 57 60 58 56 37 31 27 24 20 22 22 20 17 16 16 20 70 53 91 100 94 100 81 82 100 100 100 95 99 100 100 100 100 100 100 100 94
84 85 63 55 59 56 53 58 98 87 60 40 37 29 26 23 21 20 20 22 21 19 16 15 14 48 47 73 100 100 98 92 98 100 100 86 88 100 100 100 100 100 100 100 98
66 47 36 36 37 45 81 100 72 42 36 32 32 31 27 26 24 20 18 18 18 20 21 18 15 13 32 46 50 99 100 78 90 87 83 97 89 100 100 100 100 90 100 100 100
49 33 32 32 30 36 36 30 33 33 38 34 33 33 35 31 28 24 21 18 17 17 17 18 19 14 13 22 44 39 91 100 64 90 86 77 99 100 100 100 99 81 100 100 100
42 34 33 37 36 37 30 31 37 36 39 45 38 35 37 31 29 28 20 19 20 19 18 17 17 17 14 13 18 46 34 100 97 55 93 84 88 100 100 100 97 100 92 100 100
35 37 43 41 36 34 34 44 40 49 49 41 43 66 60 42 33 25 21 20 20 20 18 17 15 15 16 12 12 17 43 36 100 86 72 86 76 100 100 96 98 100 97 94 94
42 50 44 46 70 70 54 45 49 54 49 52 90 100 75 45 31 22 20 19 17 18 16 12 11 12 13 14 12 12 18 42 83 100 61 64 95 100 100 94 99 100 100 63 77
35 39 39 52 77 82 64 46 55 59 67 91 100 88 46 33 24 20 18 16 16 16 15 10 8 7 8 10 11 11 11 25 53 100 87 50 98 100 100 98 100 100 100 63 72
54 49 64 94 100 55 41 44 54 52 98 100 93 61 53 25 23 17 16 16 15 16 14 10 8 7 7 8 10 11 13 12 48 81 100 49 100 100 100 100 100 100 100 100 51
66 73 90 100 100 55 47 53 61 67 70 68 61 50 37 29 25 17 17 16 16 16 13 10 10 8 7 7 9 10 12 12 17 63 100 85 90 100 100 100 100 100 100 100 100
53 77 100 100 54 36 46 57 67 61 49 44 40 38 33 27 21 18 17 16 15 15 12 10 10 7 7 7 8 9 11 12 11 49 92 100 80 93 100 96 100 100 100 100 100
76 100 98 52 39 43 53 70 65 61 47 31 26 24 23 21 18 17 16 16 13 13 11 10 8 7 7 7 8 9 11 13 11 31 56 100 67 84 97 92 100 100 100 91 65
94 98 48 38 44 46 65 59 57 55 37 28 24 19 18 17 15 14 15 12 14 10 11 11 7 7 7 8 8 10 10 13 13 15 60 100 92 76 83 86 100 100 87 99 52
85 50 42 37 39 55 58 58 55 42 31 23 22 17 15 15 12 9 13 9 9 9 10 10 6 7 8 8 9 12 10 13 14 13 53 100 94 74 70 89 98 100 90 100 51
45 50 36 34 42 51 50 47 37 29 24 21 17 15 13 10 11 8 8 7 8 8 10 8 6 8 8 9 10 11 10 12 14 13 42 77 100 72 98 100 100 100 100 100 86
61 36 32 37 46 47 41 34 29 28 21 17 15 13 12 9 8 7 5 6 6 8 8 7 7 8 7 9 9 10 9 11 13 12 31 64 100 92 86 100 100 100 100 100 100
49 38 37 44 47 41 37 32 25 20 18 15 13 12 9 7 4 5 4 5 5 7 6 7 8 7 8 10 8 10 10 11 13 13 20 72 100 100 87 100 91 91 95 94 100
40 40 41 46 42 36 31 25 22 18 16 13 11 8 6 4 3 3 3 4 5 6 6 6 7 7 10 11 9 11 12 12 14 14 17 78 100 100 82 78 100 94 98 82 84
34 46 43 42 40 32 26 22 19 18 14 11 8 5 4 3 3 3 3 4 4 5 6 6 8 8 9 10 9 10 12 13 15 14 17 80 100 100 100 99 100 100 92 60 56
40 49 49 44 36 27 23 20 18 16 12 8 6 3 3 3 4 3 3 3 4 6 6 7 8 10 9 10 12 13 14 12 15 16 16 82 100 100 100 100 99 100 100 100 83
51 51 52 38 28 25 23 19 18 13 9 6 4 3 3 3 3 4 3 3 4 6 8 8 8 9 8 9 14 13 17 16 14 16 16 76 100 100 100 100 100 100 100 100 100
50 52 43 30 27 24 23 20 16 12 8 4 4 3 2 2 3 4 4 4 5 7 8 10 10 10 8 12 15 13 18 17 16 15 16 57 100 100 100 100 100 100 100 100 100
48 43 36 30 25 23 22 18 14 12 8 4 3 2 2 2 3 4 5 4 5 8 10 12 12 10 9 14 16 19 21 20 19 17 18 31 100 100 100 100 100 100 100 100 100
43 42 33 32 26 21 23 19 14 11 6 5 2 2 2 2 4 5 5 5 6 9 12 14 14 11 12 17 19 14 19 20 20 18 22 20 99 100 100 100 100 100 100 100 100
45 37 33 30 25 21 24 19 14 11 6 4 2 2 2 3 5 5 5 5 6 10 15 16 14 11 10 15 21 19 20 21 19 18 17 16 79 100 100 100 100 100 100 100 100
Wind_Speed
30 32 33 38 35 33 34 37 39 43 42 41 43 44 45 46 49 54 58 59 60 63 62 64 61 59 59 60 65 71 71 64 65 66 64 69 69 69 66 66 63 61 56 56 54
31 35 39 40 41 40 41 45 46 47 45 46 46 45 46 47 47 48 56 61 63 65 67 69 70 68 64 65 64 62 61 58 68 69 74 71 65 66 64 64 67 64 61 59 55
34 38 39 40 43 44 48 46 46 47 50 49 47 48 48 49 50 48 52 55 62 67 70 73 75 76 74 70 69 69 58 66 69 74 74 74 61 68 65 67 67 68 65 61 55
38 40 41 41 43 44 45 45 47 52 53 53 53 51 52 52 54 53 53 55 56 63 71 75 79 80 78 78 75 74 71 71 70 72 73 68 70 74 73 68 63 63 64 60 55
38 39 40 43 42 40 43 48 52 53 55 57 57 56 57 58 58 56 56 55 56 58 63 73 81 84 83 85 84 73 74 76 74 72 72 76 67 77 77 72 66 65 65 60 60
38 38 34 37 37 39 41 46 49 53 55 57 57 60 61 61 63 63 62 58 59 61 64 67 78 87 85 87 87 85 81 78 76 72 70 72 71 82 81 72 68 67 66 64 64
37 40 44 44 46 47 50 55 57 57 58 58 58 58 59 64 65 66 63 62 63 65 71 74 76 83 87 91 91 92 89 82 79 74 73 72 75 79 81 77 70 67 64 65 61
42 43 44 48 52 54 56 63 65 68 64 62 57 55 59 63 66 67 63 61 62 68 74 78 77 79 86 90 92 95 95 88 79 82 76 76 65 80 85 79 71 68 67 64 58
45 44 47 50 54 59 66 66 71 74 65 55 53 63 65 66 66 66 61 62 60 67 75 79 75 79 82 88 91 95 92 89 88 84 81 71 67 84 82 80 72 75 63 66 60
42 45 50 56 58 66 71 71 79 73 58 55 60 66 67 69 67 65 63 62 61 63 72 75 71 73 80 87 87 86 89 91 93 88 86 76 71 87 87 84 76 74 69 63 62
47 50 55 61 65 70 76 77 82 63 58 63 64 63 75 73 74 68 63 65 61 58 65 67 65 65 75 85 91 95 98 102 106 103 95 81 82 88 85 86 78 75 72 66 60
52 54 60 67 73 74 80 83 68 56 53 62 66 72 75 80 81 76 71 69 65 57 58 60 60 64 64 72 85 98 101 107 107 107 97 92 86 86 91 89 80 79 77 72 69
54 58 69 73 75 76 87 71 58 58 61 63 66 72 78 79 80 80 71 69 65 53 53 52 56 61 60 66 76 91 104 102 103 106 99 97 93 91 92 89 86 79 78 78 75
59 67 72 75 77 84 73 61 60 66 71 74 71 72 79 82 81 76 72 68 59 49 52 46 56 58 57 61 71 84 102 104 104 107 102 99 88 87 87 82 86 81 76 78 72
63 71 76 77 86 73 61 61 67 72 78 79 86 85 85 85 76 75 65 55 55 47 49 45 51 53 54 59 73 76 101 107 107 107 107 102 100 91 88 88 84 86 74 71 72
66 73 77 87 75 62 62 67 72 77 81 87 88 90 86 85 72 62 60 50 49 45 45 45 49 48 55 59 66 81 100 111 112 110 114 106 97 94 82 74 84 81 83 76 69
69 77 81 81 64 63 66 70 75 78 89 94 93 93 88 78 72 60 51 50 41 41 44 48 45 47 53 57 70 86 101 114 116 116 112 103 100 83 84 83 85 79 80 79 75
74 82 83 69 64 65 69 74 81 88 92 94 97 93 85 72 60 56 46 44 41 38 46 44 43 47 54 58 69 78 94 111 113 109 105 103 96 91 88 87 87 81 80 80 79
77 84 74 66 67 70 75 80 86 91 96 96 91 84 72 60 54 44 40 41 34 42 45 40 40 49 52 60 67 76 93 105 104 95 103 98 94 97 91 91 91 86 83 76 78
76 78 65 64 68 72 79 87 94 95 95 94 85 71 58 47 44 36 35 31 35 40 41 39 43 47 53 62 69 77 85 103 106 109 108 105 102 97 90 87 91 85 79 78 78
83 71 64 67 70 75 82 88 93 95 92 85 72 60 46 40 33 32 29 27 34 35 38 38 42 49 54 61 68 77 89 102 106 109 109 107 101 98 94 90 90 87 85 80 73
78 63 66 70 75 79 86 91 91 92 86 75 62 50 40 32 27 24 23 26 27 31 34 37 41 46 53 58 65 75 86 101 111 112 107 104 102 106 100 97 95 92 90 84 81
65 62 66 70 75 82 89 91 91 89 79 64 55 45 37 29 22 19 20 19 25 28 33 36 40 46 52 60 70 79 87 97 106 109 108 109 110 103 99 97 95 92 88 89 87
59 63 67 73 79 87 90 89 89 84 73 60 50 42 33 24 15 13 10 15 23 28 32 33 39 43 52 61 69 79 89 96 101 104 107 109 105 100 98 97 91 87 86 87 85
59 62 68 74 81 86 89 88 86 78 70 55 45 36 27 18 10 8 11 16 22 28 29 33 38 44 49 58 66 77 83 93 101 106 107 111 105 101 102 100 97 92 91 89 88
59 65 70 78 83 86 88 89 83 74 62 55 44 32 23 13 4 8 13 17 23 28 30 34 38 46 54 66 71 82 92 98 108 109 113 116 110 107 105 102 101 97 91 87 85
60 64 72 80 86 83 86 86 80 70 60 49 38 29 19 7 1 9 12 17 24 28 30 33 37 43 45 57 68 76 86 95 101 109 115 115 113 101 102 101 99 97 93 88 84
Wind_Direction
290 291 301 312 312 309 302 299 296 294 286 283 276 272 271 265 260 257 256 255 250 246 242 238 234 238 238 236 235 231 227 223 231 233 235 235 223 219 224 224 227 224 223 229 232
291 294 301 310 309 304 304 302 301 300 297 290 283 277 273 268 265 263 257 253 250 250 246 240 235 231 233 235 234 234 229 228 224 227 229 229 220 222 225 224 220 224 221 224 229
290 299 306 304 302 301 303 301 302 299 297 294 287 283 278 271 267 267 262 257 254 250 247 245 241 234 230 229 231 231 229 227 220 223 228 229 217 221 224 225 225 223 221 222 230
296 300 304 303 301 301 302 303 301 296 296 293 291 287 282 274 270 265 263 260 256 255 252 247 244 240 233 229 228 228 230 229 225 222 228 229 224 220 222 225 224 222 225 227 227
302 307 308 306 303 305 306 300 297 299 299 295 290 288 287 283 278 272 268 264 259 258 255 252 247 242 238 230 229 225 227 229 227 226 223 226 222 217 219 223 219 223 226 228 226
308 313 315 317 316 313 309 310 302 301 299 296 291 285 283 283 279 276 275 273 267 264 261 253 249 244 238 237 229 227 226 226 227 225 224 223 219 214 216 219 218 224 228 231 230
310 309 309 308 314 315 314 317 316 306 302 297 291 284 283 280 278 276 277 276 273 268 264 258 250 244 241 234 232 226 225 223 226 226 224 224 218 215 216 217 216 221 225 228 228
309 310 314 315 312 319 319 323 317 317 302 297 291 290 288 282 281 281 282 279 277 274 268 260 251 244 240 236 231 229 223 223 224 226 224 224 216 214 216 213 215 217 224 226 225
307 311 314 315 317 317 318 319 319 312 305 297 297 295 290 287 288 285 285 286 284 280 273 264 253 246 240 237 232 228 225 219 222 224 225 218 217 214 215 212 215 217 219 225 221
314 314 317 316 315 316 317 316 318 310 302 300 299 295 292 293 291 292 295 294 288 282 272 266 257 247 241 236 233 229 226 220 220 220 224 215 216 213 213 210 212 219 218 220 225
318 316 316 317 315 318 319 316 315 308 304 301 297 294 297 297 297 300 303 300 295 285 272 267 259 247 235 229 223 220 216 215 214 216 217 214 215 214 211 208 212 216 212 216 219
317 317 318 316 316 316 318 316 312 304 299 300 301 300 300 299 302 306 307 303 299 286 270 262 255 248 237 228 221 217 215 215 211 213 212 214 213 213 211 208 210 212 212 211 216
319 319 316 317 316 314 317 314 308 304 300 297 299 298 297 300 302 306 306 303 295 282 268 259 250 249 238 227 219 214 213 211 212 212 209 213 211 210 210 208 209 210 212 215 215
321 318 317 318 320 317 316 311 309 308 305 302 300 300 303 304 305 307 306 299 290 277 265 254 251 246 238 227 218 212 209 208 210 209 209 212 212 210 210 204 209 210 211 214 215
318 317 318 322 320 317 315 313 311 310 308 309 310 310 309 309 310 307 304 291 284 270 261 250 247 242 236 221 215 206 206 206 208 207 207 209 210 209 209 209 208 211 210 213 215
318 321 324 322 320 318 316 315 314 311 310 310 311 313 314 313 312 304 300 284 273 266 256 246 244 234 229 217 210 206 203 204 206 205 206 206 208 211 207 208 211 211 212 216 216
323 326 323 324 321 318 317 316 312 312 314 315 315 316 318 314 309 302 291 282 268 255 248 242 239 227 223 212 208 205 202 202 204 205 203 204 207 208 206 209 208 209 210 216 216
321 326 324 325 321 319 317 316 318 317 315 317 320 319 316 311 304 294 288 277 258 245 241 238 231 221 218 209 210 206 204 203 204 204 201 202 203 206 206 207 207 207 210 211 211
324 325 326 324 323 322 321 320 317 320 321 320 318 317 313 307 298 291 278 263 252 239 238 232 223 219 214 208 208 204 203 201 201 201 202 202 201 206 206 207 210 212 214 209 210
324 327 325 325 323 323 324 322 323 323 322 321 321 318 313 301 293 284 269 257 242 237 235 226 218 214 209 205 204 202 200 199 197 200 199 198 200 204 207 208 211 215 214 214 213
324 328 326 325 327 326 325 325 325 324 324 325 322 317 312 301 292 278 269 249 240 232 228 222 213 209 206 204 203 199 196 195 198 200 197 199 199 202 204 206 208 210 213 217 218
327 329 329 328 328 327 327 327 326 327 327 328 325 320 315 310 295 279 259 248 238 226 222 217 209 203 200 200 199 198 197 195 197 198 196 198 198 202 202 205 207 211 214 215 213
330 329 329 329 329 329 330 329 329 330 331 332 329 325 321 313 296 273 263 247 225 216 213 212 205 199 197 197 195 195 194 195 197 197 196 197 199 201 202 206 210 211 212 214 215
330 331 332 331 333 333 333 331 332 336 336 336 334 329 324 314 294 262 237 223 215 207 208 204 198 196 194 193 195 193 194 194 196 196 197 198 200 201 203 207 209 211 216 218 218
330 333 333 334 335 336 336 335 337 340 339 340 339 334 330 321 293 240 200 207 204 201 198 196 193 193 191 194 194 191 194 193 195 194 197 199 200 199 203 206 208 211 212 215 218
333 334 336 336 337 337 339 340 341 343 345 345 344 343 343 332 298 185 190 194 193 194 190 192 190 190 188 191 191 195 193 193 194 193 198 198 199 196 203 206 210 212 216 216 219
336 337 337 338 340 343 344 344 346 347 349 349 350 351 351 351 197 200 185 193 188 187 186 188 191 191 192 193 194 195 195 194 195 195 199 197 200 196 204 206 210 213 216 217 222